Weather in Ronga

Russia / Mari El Republic     56°42′14″N   48°31′04″E
temp.,
°C
wind,
m/s
gust,
m/s
humid.,
%
clouds,
%
prec.,
mm/h
press.,
hPa
HPBL,
m
3 march, wed
wed300:00−6w359796 0.1 999108
03:00−3w499798 0.7 999386
06:00−4wnw51196100 0.9 999562
09:00−5nnw61194100 1.5 1001663
12:00−5nw71089100 0.3 1002668
15:00−5wnw71088100 0.4 1003777
18:00−6wnw61090100 0.1 1004715
21:00−6w51089100 0.3 1004691
4 march, thu
thu400:00−8sw51095100 0.2 1001349
03:00−5wsw61295100 1.1 999597
06:00−5sw51195100 0.3 996434
09:00−3wsw61196100 1.3 994811
12:00−2wsw71192100 0.7 9921025
15:00−1wnw6118799 3.5 991828
18:00−5w514893 0.1 993474
21:00−6wnw499634 0.1 997208
5 march, fri
fri500:00−11wnw349532 0.0 99864
03:00−14nnw239629 0.0 100021
06:00−16nnw239150 0.0 100123
09:00−14n358927 0.0 1002189
12:00−11nnw35880 0.0 1003399
15:00−11nw478922 0.0 1006554
18:00−12wnw3893100 0.1 1008286
21:00−15wnw339792 0.1 101031
6 march, sat
sat600:00−15wsw339871 0.0 101241
03:00−16sw339878 0.1 101245
06:00−17sw339878 0.0 101239
09:00−13ssw359381 0.0 1011198
12:00−9ssw4789100 0.0 1010361
15:00−8ssw3692100 0.1 1009536
18:00−10ssw3496100 0.5 1008119
21:00−12nnw61193100 1.0 1009367
7 march, sun
sun700:00−15nw469799 0.1 1009196
03:00−21wnw2310088 0.1 101024
06:00−22sw3310068 0.0 100931
09:00−17ssw369554 0.0 1008189
12:00−11s61093100 0.0 1005428
15:00−9s71393100 0.3 1002928
18:00−8s71493100 1.3 998942
21:00−6s71494100 2.3 994934